logo tempoitalia

Diretta Meteo Dresda-Klotzsche, Germanialunedì 31 agosto ore 07:20

Mappa
Sereno 17 °C Sereno 24 Ore: T.min 15 T.max 26
Ponente Nord Km/h 5.5 Punto di rugiada: 12 °C Umidità: 72% Visibilità: 10 Km
Il sole sorge alle: 06:16 Il sole tramonta alle: 19:53
31 Agosto 2026 07:20 tempo osservato: Sereno Sereno 17 72 1012 vento: Nord N 5.5
31 Agosto 2026 06:50 tempo osservato: Sereno Sereno 15 82 1012 vento: Nord S 14.8
31 Agosto 2026 06:20 tempo osservato: Sereno Sereno 15 82 1012 vento: Nord S 13
31 Agosto 2026 05:50 tempo osservato: Sereno Sereno 15 82 1012 vento: Nord S/SE 11.1
31 Agosto 2026 05:20 tempo osservato: Sereno Sereno 15 82 1013 vento: Nord S 7.4
31 Agosto 2026 04:50 tempo osservato: Sereno Sereno 15 82 1013 vento: Nord S/SE 11.1
31 Agosto 2026 04:20 tempo osservato: Sereno Sereno 15 76 1013 vento: Nord S/SE 16.7
31 Agosto 2026 03:50 tempo osservato: Sereno Sereno 15 82 1013 vento: Nord S/SE 14.8
31 Agosto 2026 03:20 tempo osservato: Sereno Sereno 16 77 1013 vento: Nord N 3.7
31 Agosto 2026 02:50 tempo osservato: Sereno Sereno 16 77 1014 vento: Nord N 5.5
31 Agosto 2026 02:20 tempo osservato: Sereno Sereno 17 72 1014 vento: Nord N 3.7
31 Agosto 2026 01:50 tempo osservato: Sereno Sereno 17 72 1014 vento: Nord S 7.4
31 Agosto 2026 01:20 tempo osservato: Sereno Sereno 17 72 1014 vento: Nord N 3.7
31 Agosto 2026 00:50 tempo osservato: Sereno Sereno 18 67 1014 vento: Nord S 7.4
31 Agosto 2026 00:20 tempo osservato: Sereno Sereno 18 67 1014 vento: Nord N 5.5
30 Agosto 2026 23:50 tempo osservato: Sereno Sereno 19 63 1014 vento: Nord N 5.5
30 Agosto 2026 23:20 tempo osservato: Sereno Sereno 19 59 1014 vento: Nord S/SO 7.4
30 Agosto 2026 22:50 tempo osservato: Sereno Sereno 19 59 1014 vento: Nord N 3.7
30 Agosto 2026 22:20 tempo osservato: Sereno Sereno 20 56 1014 vento: Nord N 3.7
30 Agosto 2026 21:50 tempo osservato: Sereno Sereno 20 59 1014 vento: Nord N 5.5
30 Agosto 2026 21:20 tempo osservato: Sereno Sereno 21 52 1014 vento: Nord N 5.5
30 Agosto 2026 20:50 tempo osservato: Sereno Sereno 22 49 1014 vento: Nord N 3.7
30 Agosto 2026 20:20 tempo osservato: Sereno Sereno 22 49 1013 vento: Nord SO 7.4
30 Agosto 2026 19:50 tempo osservato: Sereno Sereno 23 46 1013 vento: Nord O/SO 7.4
30 Agosto 2026 19:20 tempo osservato: Sereno Sereno 24 43 1013 vento: Nord N 5.5
30 Agosto 2026 18:50 tempo osservato: Sereno Sereno 25 41 1013 vento: Nord O 11.1
30 Agosto 2026 18:20 tempo osservato: Sereno Sereno 25 44 1013 vento: Nord O/SO 7.4
30 Agosto 2026 17:50 tempo osservato: Sereno Sereno 25 44 1013 vento: Nord O/NO 9.3
30 Agosto 2026 17:20 tempo osservato: Sereno Sereno 26 41 1013 vento: Nord O 7.4
30 Agosto 2026 16:50 tempo osservato: Sereno Sereno 25 50 1013 vento: Nord O 11.1
30 Agosto 2026 16:20 tempo osservato: Sereno Sereno 25 53 1013 vento: Nord NO 11.1
30 Agosto 2026 15:50 tempo osservato: Sereno Sereno 25 44 1013 vento: Nord O/SO 14.8
30 Agosto 2026 15:20 tempo osservato: Sereno Sereno 25 44 1013 vento: Nord O/SO 14.8
30 Agosto 2026 14:50 tempo osservato: Sereno Sereno 25 47 1013 vento: Nord SO 20.3
30 Agosto 2026 14:20 tempo osservato: Sereno Sereno 25 47 1013 vento: Nord SO 22.2
30 Agosto 2026 13:50 tempo osservato: Sereno Sereno 24 50 1013 vento: Nord O/SO 20.3
30 Agosto 2026 13:20 tempo osservato: Sereno Sereno 25 47 1013 vento: Nord O/SO 24
30 Agosto 2026 12:50 tempo osservato: Sereno Sereno 24 47 1013 vento: Nord O/SO 22.2
30 Agosto 2026 12:20 tempo osservato: Poco Nuvoloso Poco Nuvoloso 25 47 1013 vento: Nord O/SO 25.9
30 Agosto 2026 11:50 tempo osservato: Nuvoloso Nuvoloso 24 50 1013 vento: Nord O/SO 22.2
30 Agosto 2026 11:20 tempo osservato: Poco Nuvoloso Poco Nuvoloso 24 50 1013 vento: Nord O/SO 24
30 Agosto 2026 10:50 tempo osservato: Poco Nuvoloso Poco Nuvoloso 24 50 1013 vento: Nord O/SO 24
30 Agosto 2026 10:20 tempo osservato: Sereno Sereno 23 53 1013 vento: Nord SO 25.9
30 Agosto 2026 09:50 tempo osservato: Sereno Sereno 23 56 1013 vento: Nord SO 24
30 Agosto 2026 09:20 tempo osservato: Sereno Sereno 23 56 1013 vento: Nord SO 24
30 Agosto 2026 08:50 tempo osservato: Sereno Sereno 22 56 1013 vento: Nord SO 25.9
30 Agosto 2026 08:20 tempo osservato: Poco Nuvoloso Poco Nuvoloso 21 60 1013 vento: Nord S/SO 18.5
30 Agosto 2026 07:50 tempo osservato: Molto Nuvoloso Molto Nuvoloso 20 64 1013 vento: Nord S 18.5